WAT2161 KSRQ-KCLE

Flight info

Callsign WAT2161
Flight time 2h 10m
Altitude 35000
Route TIDES1 CAMJO SPA J85 HVQ JANYS ROLLN2
Aircraft B738/M-SDE2E3FGHIRWXY/LB1

Departure

Time 2026-04-20 18:02
Airport Sarasota Bradenton International Airport (KSRQ)

Arrival

Time 2026-04-20 20:13
Airport Cleveland Hopkins International Airport (KCLE)
Time Latitude Longitude Altitude Speed Heading
2026-04-20 17:36 27.39023 -82.55322 26 ft 0 kts 262°
2026-04-20 17:54 27.39024 -82.55318 26 ft 2 kts 262°
2026-04-20 17:55 27.39026 -82.55300 26 ft 2 kts 274°
2026-04-20 17:55 27.39021 -82.55283 26 ft 2 kts 299°
2026-04-20 17:55 27.39011 -82.55269 26 ft 2 kts 324°
2026-04-20 17:55 27.39004 -82.55264 26 ft 1 kts 337°
2026-04-20 17:56 27.39000 -82.55263 26 ft 0 kts 334°
2026-04-20 17:57 27.39024 -82.55276 26 ft 7 kts 337°
2026-04-20 17:57 27.39100 -82.55284 26 ft 13 kts 357°
2026-04-20 17:58 27.39197 -82.55298 26 ft 14 kts 327°
2026-04-20 17:58 27.39280 -82.55386 26 ft 18 kts 314°
2026-04-20 17:58 27.39365 -82.55485 26 ft 15 kts 314°
2026-04-20 17:58 27.39448 -82.55580 26 ft 19 kts 314°
2026-04-20 17:59 27.39560 -82.55706 26 ft 22 kts 315°
2026-04-20 17:59 27.39668 -82.55828 25 ft 21 kts 313°
2026-04-20 17:59 27.39787 -82.55965 23 ft 26 kts 315°
2026-04-20 17:59 27.39929 -82.56128 22 ft 28 kts 313°
2026-04-20 18:00 27.40068 -82.56287 23 ft 26 kts 315°
2026-04-20 18:00 27.40202 -82.56442 25 ft 25 kts 314°
2026-04-20 18:00 27.40304 -82.56558 25 ft 15 kts 315°
2026-04-20 18:00 27.40386 -82.56617 26 ft 11 kts
2026-04-20 18:01 27.40442 -82.56566 26 ft 5 kts 72°
2026-04-20 18:01 27.40430 -82.56529 26 ft 0 kts 131°
2026-04-20 18:01 27.40253 -82.56306 22 ft 80 kts 133°
2026-04-20 18:01 27.39654 -82.55638 26 ft 151 kts 132°
2026-04-20 18:02 27.38798 -82.54657 423 ft 179 kts 131°
2026-04-20 18:02 27.37824 -82.53568 1043 ft 197 kts 130°
2026-04-20 18:02 27.36855 -82.52495 1960 ft 197 kts 130°
2026-04-20 18:02 27.35776 -82.51259 2168 ft 230 kts 128°
2026-04-20 18:03 27.34609 -82.49846 2812 ft 246 kts 128°
2026-04-20 18:03 27.33387 -82.48426 3909 ft 243 kts 130°
2026-04-20 18:03 27.32152 -82.47086 4888 ft 245 kts 137°
2026-04-20 18:03 27.30600 -82.46149 5797 ft 252 kts 166°
2026-04-20 18:04 27.28802 -82.46205 6783 ft 252 kts 195°
2026-04-20 18:04 27.27189 -82.47081 7643 ft 254 kts 219°
2026-04-20 18:04 27.25945 -82.48572 8411 ft 258 kts 240°
2026-04-20 18:04 27.25295 -82.50536 9048 ft 266 kts 262°
2026-04-20 18:05 27.24643 -82.54993 10269 ft 289 kts 265°
2026-04-20 18:05 27.24717 -82.57348 11014 ft 292 kts 285°
2026-04-20 18:05 27.25584 -82.59471 11867 ft 291 kts 305°
2026-04-20 18:06 27.26929 -82.61262 12656 ft 294 kts 313°
2026-04-20 18:06 27.28393 -82.63017 13404 ft 297 kts 311°
2026-04-20 18:06 27.29840 -82.64805 14181 ft 299 kts 311°
2026-04-20 18:06 27.31282 -82.66573 14922 ft 302 kts 311°
2026-04-20 18:07 27.32760 -82.68367 15653 ft 304 kts 310°
2026-04-20 18:07 27.34263 -82.70192 16365 ft 306 kts 310°
2026-04-20 18:07 27.35738 -82.71986 17050 ft 308 kts 310°
2026-04-20 18:07 27.37281 -82.73804 17731 ft 310 kts 313°
2026-04-20 18:08 27.39016 -82.75378 18370 ft 316 kts 323°
2026-04-20 18:08 27.41042 -82.76572 19066 ft 320 kts 332°
2026-04-20 18:08 27.43158 -82.77560 19707 ft 321 kts 332°
2026-04-20 18:08 27.45309 -82.78539 20309 ft 325 kts 335°
2026-04-20 18:09 27.47622 -82.79156 20837 ft 337 kts 349°
2026-04-20 18:09 27.50077 -82.79181 20931 ft 358 kts 356°
2026-04-20 18:09 27.52750 -82.79070 20992 ft 375 kts 355°
2026-04-20 18:09 27.55475 -82.79008 21043 ft 391 kts 355°
2026-04-20 18:10 27.58342 -82.78940 21093 ft 406 kts 355°
2026-04-20 18:10 27.61301 -82.78899 21224 ft 417 kts 355°
2026-04-20 18:10 27.64253 -82.78902 21594 ft 422 kts 354°
2026-04-20 18:10 27.67278 -82.78899 21941 ft 427 kts 355°
2026-04-20 18:11 27.70346 -82.78881 22427 ft 427 kts 355°
2026-04-20 18:11 27.73416 -82.78858 22838 ft 430 kts 354°
2026-04-20 18:11 27.76536 -82.78839 23259 ft 431 kts 354°
2026-04-20 18:11 27.79666 -82.78825 23634 ft 434 kts 354°
2026-04-20 18:12 27.82781 -82.78810 24061 ft 435 kts 354°
2026-04-20 18:12 27.85920 -82.78791 24413 ft 438 kts 354°
2026-04-20 18:12 27.89057 -82.78767 24782 ft 439 kts 354°
2026-04-20 18:12 27.92241 -82.78745 25108 ft 442 kts 353°
2026-04-20 18:13 27.95414 -82.78727 25433 ft 444 kts 353°
2026-04-20 18:13 27.98569 -82.78713 25759 ft 446 kts 353°
2026-04-20 18:13 28.01752 -82.78695 26064 ft 449 kts 353°
2026-04-20 18:13 28.04947 -82.78671 26369 ft 451 kts 353°
2026-04-20 18:14 28.08198 -82.78648 26673 ft 453 kts 352°
2026-04-20 18:14 28.11427 -82.78628 26964 ft 454 kts 352°
2026-04-20 18:14 28.14667 -82.78610 27257 ft 456 kts 352°
2026-04-20 18:14 28.17940 -82.78593 27513 ft 458 kts 352°
2026-04-20 18:15 28.21254 -82.78572 27797 ft 460 kts 352°
2026-04-20 18:15 28.24530 -82.78550 28064 ft 461 kts 352°
2026-04-20 18:15 28.27823 -82.78529 28316 ft 463 kts 352°
2026-04-20 18:15 28.31125 -82.78507 28697 ft 461 kts 352°
2026-04-20 18:16 28.34366 -82.78481 29134 ft 459 kts 352°
2026-04-20 18:16 28.37656 -82.78455 29481 ft 458 kts 351°
2026-04-20 18:16 28.40944 -82.78433 29855 ft 456 kts 351°
2026-04-20 18:16 28.44214 -82.78288 30180 ft 461 kts 355°
2026-04-20 18:17 28.47507 -82.77955 30508 ft 462 kts 356°
2026-04-20 18:17 28.50800 -82.77604 30841 ft 460 kts 355°
2026-04-20 18:17 28.54102 -82.77293 31166 ft 459 kts 355°
2026-04-20 18:17 28.57389 -82.77003 31323 ft 461 kts 354°
2026-04-20 18:18 28.63976 -82.76400 31329 ft 458 kts 355°
2026-04-20 18:18 28.70476 -82.75801 31338 ft 456 kts 354°
2026-04-20 18:19 28.76989 -82.75211 31349 ft 456 kts 354°
2026-04-20 18:19 28.83467 -82.74624 31356 ft 456 kts 354°
2026-04-20 18:20 28.89928 -82.74037 31356 ft 454 kts 354°
2026-04-20 18:20 28.96396 -82.73452 31660 ft 454 kts 354°
2026-04-20 18:21 28.99645 -82.73151 32039 ft 452 kts 354°
2026-04-20 18:21 29.02888 -82.72850 32287 ft 453 kts 354°
2026-04-20 18:21 29.06138 -82.72553 32610 ft 451 kts 354°
2026-04-20 18:21 29.09326 -82.72267 32950 ft 449 kts 353°
2026-04-20 18:22 29.12537 -82.71985 33273 ft 447 kts 353°
2026-04-20 18:22 29.15712 -82.71706 33578 ft 446 kts 353°
2026-04-20 18:22 29.18899 -82.71418 33907 ft 444 kts 353°
2026-04-20 18:22 29.22080 -82.71120 34218 ft 442 kts 353°
2026-04-20 18:23 29.25264 -82.70820 34491 ft 441 kts 353°
2026-04-20 18:23 29.28364 -82.70538 34752 ft 440 kts 353°
2026-04-20 18:23 29.31482 -82.70258 35044 ft 439 kts 352°
2026-04-20 18:23 29.34587 -82.69974 35262 ft 438 kts 353°
2026-04-20 18:24 29.40816 -82.69405 35283 ft 437 kts 352°
2026-04-20 18:24 29.47010 -82.69174 35293 ft 426 kts 347°
2026-04-20 18:25 29.53123 -82.69224 35292 ft 428 kts 348°
2026-04-20 18:25 29.59223 -82.69185 35291 ft 427 kts 348°
2026-04-20 18:26 29.65277 -82.69164 35292 ft 428 kts 348°
2026-04-20 18:26 29.71390 -82.69131 35292 ft 428 kts 348°
2026-04-20 18:27 29.77572 -82.69096 35292 ft 430 kts 348°
2026-04-20 18:27 29.83688 -82.69055 35292 ft 426 kts 348°
2026-04-20 18:28 29.89744 -82.69019 35292 ft 426 kts 348°
2026-04-20 18:28 29.95813 -82.68983 35292 ft 426 kts 348°
2026-04-20 18:29 30.01866 -82.68945 35294 ft 425 kts 348°
2026-04-20 18:29 30.07885 -82.68900 35292 ft 422 kts 347°
2026-04-20 18:30 30.13904 -82.68870 35293 ft 424 kts 347°
2026-04-20 18:30 30.19955 -82.68832 35292 ft 424 kts 347°
2026-04-20 18:31 30.26005 -82.68794 35292 ft 423 kts 347°
2026-04-20 18:31 30.32050 -82.68757 35292 ft 423 kts 347°
2026-04-20 18:32 30.38142 -82.68719 35293 ft 423 kts 347°
2026-04-20 18:32 30.44213 -82.68681 35292 ft 423 kts 347°
2026-04-20 18:33 30.50269 -82.68618 35291 ft 427 kts 350°
2026-04-20 18:33 30.56460 -82.67741 35272 ft 437 kts 355°
2026-04-20 18:34 30.62681 -82.66732 35299 ft 435 kts 354°
2026-04-20 18:34 30.68895 -82.65753 35317 ft 434 kts 355°
2026-04-20 18:35 30.75028 -82.64766 35329 ft 433 kts 355°
2026-04-20 18:35 30.81195 -82.63782 35329 ft 434 kts 355°
2026-04-20 18:36 30.87357 -82.62791 35329 ft 434 kts 354°
2026-04-20 18:36 30.93453 -82.61813 35329 ft 433 kts 354°
2026-04-20 18:37 30.99596 -82.60824 35329 ft 433 kts 354°
2026-04-20 18:37 31.05722 -82.59836 35328 ft 434 kts 354°
2026-04-20 18:38 31.11893 -82.58837 35325 ft 433 kts 354°
2026-04-20 18:38 31.18032 -82.57846 35321 ft 433 kts 354°
2026-04-20 18:39 31.24153 -82.56855 35320 ft 433 kts 354°
2026-04-20 18:39 31.30297 -82.55858 35320 ft 433 kts 354°
2026-04-20 18:40 31.36413 -82.54862 35320 ft 431 kts 354°
2026-04-20 18:40 31.42501 -82.53874 35320 ft 431 kts 354°
2026-04-20 18:41 31.48596 -82.52882 35320 ft 431 kts 354°
2026-04-20 18:41 31.54671 -82.51891 35320 ft 431 kts 354°
2026-04-20 18:42 31.60771 -82.50894 35320 ft 431 kts 354°
2026-04-20 18:42 31.66916 -82.49890 35320 ft 431 kts 354°
2026-04-20 18:43 31.73080 -82.48881 35320 ft 431 kts 354°
2026-04-20 18:43 31.79153 -82.47885 35320 ft 430 kts 354°
2026-04-20 18:44 31.85308 -82.46877 35320 ft 430 kts 354°
2026-04-20 18:44 31.91517 -82.45856 35320 ft 430 kts 354°
2026-04-20 18:45 31.97701 -82.44837 35320 ft 430 kts 354°
2026-04-20 18:45 32.03913 -82.43816 35320 ft 430 kts 354°
2026-04-20 18:46 32.10141 -82.42789 35320 ft 431 kts 354°
2026-04-20 18:46 32.16337 -82.41764 35311 ft 431 kts 354°
2026-04-20 18:47 32.22570 -82.40733 35311 ft 431 kts 354°
2026-04-20 18:47 32.28744 -82.39709 35311 ft 431 kts 354°
2026-04-20 18:48 32.34939 -82.38684 35314 ft 429 kts 354°
2026-04-20 18:48 32.41114 -82.37656 35325 ft 429 kts 354°
2026-04-20 18:49 32.47271 -82.36633 35335 ft 429 kts 354°
2026-04-20 18:49 32.53491 -82.35596 35339 ft 429 kts 354°
2026-04-20 18:50 32.59640 -82.34565 35339 ft 427 kts 355°
2026-04-20 18:50 32.65834 -82.33539 35338 ft 429 kts 355°
2026-04-20 18:51 32.72002 -82.32505 35338 ft 430 kts 355°
2026-04-20 18:51 32.78171 -82.31471 35338 ft 430 kts 355°
2026-04-20 18:52 32.84327 -82.30437 35338 ft 430 kts 355°
2026-04-20 18:52 32.90483 -82.29403 35338 ft 430 kts 355°
2026-04-20 18:53 32.96653 -82.28365 35338 ft 431 kts 355°
2026-04-20 18:53 33.02823 -82.27324 35338 ft 431 kts 355°
2026-04-20 18:54 33.09014 -82.26279 35338 ft 431 kts 355°
2026-04-20 18:54 33.15194 -82.25236 35338 ft 432 kts 355°
2026-04-20 18:55 33.21349 -82.24194 35338 ft 432 kts 355°
2026-04-20 18:55 33.27559 -82.23141 35338 ft 432 kts 356°
2026-04-20 18:56 33.33743 -82.22092 35338 ft 432 kts 356°
2026-04-20 18:56 33.39948 -82.21038 35339 ft 434 kts 356°
2026-04-20 18:57 33.46199 -82.19976 35335 ft 435 kts 356°
2026-04-20 18:57 33.52448 -82.18909 35325 ft 435 kts 356°
2026-04-20 18:58 33.58727 -82.17837 35315 ft 435 kts 356°
2026-04-20 18:58 33.65015 -82.16759 35310 ft 435 kts 356°
2026-04-20 18:59 33.71311 -82.15681 35311 ft 435 kts 356°
2026-04-20 18:59 33.77584 -82.14607 35310 ft 435 kts 356°
2026-04-20 19:00 33.83886 -82.13526 35311 ft 436 kts 356°
2026-04-20 19:00 33.90174 -82.12445 35311 ft 435 kts 356°
2026-04-20 19:01 33.96509 -82.11353 35311 ft 435 kts 356°
2026-04-20 19:01 34.02746 -82.10279 35310 ft 435 kts 356°
2026-04-20 19:02 34.08927 -82.09211 35310 ft 435 kts 356°
2026-04-20 19:02 34.15108 -82.08141 35304 ft 436 kts 356°
2026-04-20 19:03 34.21357 -82.07059 35296 ft 436 kts 356°
2026-04-20 19:03 34.27591 -82.05973 35293 ft 434 kts 356°
2026-04-20 19:04 34.33867 -82.04890 35295 ft 434 kts 356°
2026-04-20 19:04 34.40157 -82.03794 35297 ft 434 kts 356°
2026-04-20 19:05 34.46410 -82.02701 35296 ft 433 kts 356°
2026-04-20 19:05 34.52661 -82.01619 35297 ft 432 kts 356°
2026-04-20 19:06 34.58913 -82.00523 35298 ft 431 kts 357°
2026-04-20 19:06 34.65070 -81.99445 35300 ft 431 kts 357°
2026-04-20 19:07 34.71299 -81.98356 35300 ft 433 kts 357°
2026-04-20 19:07 34.77441 -81.97268 35290 ft 432 kts 357°
2026-04-20 19:08 34.86661 -81.95652 35252 ft 430 kts 357°
2026-04-20 19:09 34.92861 -81.94551 35247 ft 428 kts 358°
2026-04-20 19:09 34.98976 -81.93478 35247 ft 428 kts 358°
2026-04-20 19:10 35.05060 -81.92562 35246 ft 421 kts 353°
2026-04-20 19:10 35.10948 -81.92362 35247 ft 418 kts 352°
2026-04-20 19:11 35.17073 -81.92073 35246 ft 418 kts 353°
2026-04-20 19:11 35.23148 -81.91791 35247 ft 416 kts 353°
2026-04-20 19:12 35.29169 -81.91528 35247 ft 415 kts 353°
2026-04-20 19:12 35.35135 -81.91258 35247 ft 415 kts 353°
2026-04-20 19:13 35.41041 -81.90983 35246 ft 414 kts 353°
2026-04-20 19:13 35.46952 -81.90717 35245 ft 413 kts 353°
2026-04-20 19:14 35.52891 -81.90437 35242 ft 412 kts 353°
2026-04-20 19:14 35.58779 -81.90171 35242 ft 411 kts 353°
2026-04-20 19:15 35.64684 -81.89899 35242 ft 411 kts 353°
2026-04-20 19:15 35.70536 -81.89627 35242 ft 411 kts 353°
2026-04-20 19:16 35.76395 -81.89357 35241 ft 410 kts 354°
2026-04-20 19:16 35.82332 -81.89083 35241 ft 411 kts 354°
2026-04-20 19:17 35.88277 -81.88807 35243 ft 410 kts 354°
2026-04-20 19:17 35.94217 -81.88530 35247 ft 409 kts 354°
2026-04-20 19:18 36.00182 -81.88253 35251 ft 409 kts 354°
2026-04-20 19:18 36.06141 -81.87976 35251 ft 409 kts 354°
2026-04-20 19:19 36.12143 -81.87696 35250 ft 410 kts 354°
2026-04-20 19:19 36.18093 -81.87418 35250 ft 410 kts 354°
2026-04-20 19:20 36.24044 -81.87140 35250 ft 409 kts 354°
2026-04-20 19:20 36.30029 -81.86860 35250 ft 409 kts 354°
2026-04-20 19:21 36.35986 -81.86581 35250 ft 411 kts 354°
2026-04-20 19:21 36.41977 -81.86300 35249 ft 411 kts 354°
2026-04-20 19:22 36.47876 -81.86021 35249 ft 410 kts 354°
2026-04-20 19:22 36.53760 -81.85746 35263 ft 411 kts 354°
2026-04-20 19:23 36.59682 -81.85465 35278 ft 410 kts 354°
2026-04-20 19:23 36.65621 -81.85184 35293 ft 410 kts 354°
2026-04-20 19:24 36.71608 -81.84905 35293 ft 412 kts 354°
2026-04-20 19:24 36.77639 -81.84615 35293 ft 413 kts 354°
2026-04-20 19:25 36.83650 -81.84331 35292 ft 414 kts 354°
2026-04-20 19:25 36.89700 -81.84043 35292 ft 413 kts 354°
2026-04-20 19:26 36.95742 -81.83755 35292 ft 413 kts 354°
2026-04-20 19:26 37.01740 -81.83469 35292 ft 412 kts 354°
2026-04-20 19:27 37.07777 -81.83180 35292 ft 413 kts 354°
2026-04-20 19:27 37.13782 -81.82893 35296 ft 413 kts 354°
2026-04-20 19:28 37.19794 -81.82604 35316 ft 413 kts 354°
2026-04-20 19:28 37.25711 -81.82320 35336 ft 412 kts 354°
2026-04-20 19:29 37.31688 -81.82034 35347 ft 412 kts 354°
2026-04-20 19:29 37.37720 -81.81743 35347 ft 412 kts 354°
2026-04-20 19:30 37.43703 -81.81454 35347 ft 411 kts 354°
2026-04-20 19:30 37.49676 -81.81165 35347 ft 410 kts 354°
2026-04-20 19:31 37.55687 -81.80875 35347 ft 411 kts 354°
2026-04-20 19:31 37.61603 -81.80590 35347 ft 411 kts 354°
2026-04-20 19:32 37.67580 -81.80299 35347 ft 410 kts 354°
2026-04-20 19:32 37.73533 -81.80008 35347 ft 410 kts 354°
2026-04-20 19:33 37.79434 -81.79720 35344 ft 410 kts 354°
2026-04-20 19:33 37.85340 -81.79433 35338 ft 409 kts 354°
2026-04-20 19:34 37.91213 -81.79128 35348 ft 410 kts 355°
2026-04-20 19:34 37.97075 -81.78762 35343 ft 408 kts 355°
2026-04-20 19:35 38.02921 -81.78412 35351 ft 407 kts 354°
2026-04-20 19:35 38.08843 -81.78155 35346 ft 410 kts 354°
2026-04-20 19:36 38.14720 -81.77955 35347 ft 407 kts 354°
2026-04-20 19:36 38.20549 -81.77730 35344 ft 406 kts 354°
2026-04-20 19:37 38.26349 -81.77447 35345 ft 406 kts 354°
2026-04-20 19:37 38.32194 -81.77138 35349 ft 410 kts 354°
2026-04-20 19:38 38.37982 -81.77486 35347 ft 397 kts 345°
2026-04-20 19:38 38.43670 -81.78507 35348 ft 403 kts 346°
2026-04-20 19:39 38.49423 -81.79395 35347 ft 404 kts 346°
2026-04-20 19:39 38.55161 -81.80325 35347 ft 402 kts 346°
2026-04-20 19:40 38.60952 -81.81271 35347 ft 401 kts 346°
2026-04-20 19:40 38.66646 -81.82211 35348 ft 402 kts 346°
2026-04-20 19:41 38.72388 -81.83161 35347 ft 403 kts 346°
2026-04-20 19:41 38.78145 -81.84109 35347 ft 402 kts 346°
2026-04-20 19:42 38.83861 -81.85057 35348 ft 402 kts 346°
2026-04-20 19:42 38.89585 -81.86008 35350 ft 401 kts 346°
2026-04-20 19:43 38.95311 -81.86961 35360 ft 402 kts 346°
2026-04-20 19:43 39.01049 -81.87918 35368 ft 403 kts 347°
2026-04-20 19:44 39.06817 -81.88880 35372 ft 402 kts 347°
2026-04-20 19:44 39.12632 -81.89853 35372 ft 401 kts 347°
2026-04-20 19:45 39.18439 -81.90826 35372 ft 401 kts 347°
2026-04-20 19:45 39.24229 -81.91799 35372 ft 400 kts 347°
2026-04-20 19:46 39.30016 -81.92773 35371 ft 399 kts 347°
2026-04-20 19:46 39.35786 -81.93744 35372 ft 400 kts 347°
2026-04-20 19:47 39.41574 -81.94721 35371 ft 399 kts 347°
2026-04-20 19:47 39.47333 -81.95693 35370 ft 399 kts 347°
2026-04-20 19:48 39.53095 -81.96668 35370 ft 398 kts 347°
2026-04-20 19:48 39.58827 -81.97639 35375 ft 398 kts 347°
2026-04-20 19:49 39.64526 -81.98608 35380 ft 398 kts 347°
2026-04-20 19:49 39.70266 -81.99584 35384 ft 398 kts 347°
2026-04-20 19:50 39.76035 -82.00357 35383 ft 400 kts 352°
2026-04-20 19:50 39.81846 -81.99741 35385 ft 409 kts
2026-04-20 19:51 39.87673 -81.98357 35378 ft 408 kts
2026-04-20 19:51 39.90553 -81.97710 34868 ft 404 kts
2026-04-20 19:51 39.93386 -81.97064 34166 ft 401 kts
2026-04-20 19:51 39.96224 -81.96411 33408 ft 399 kts
2026-04-20 19:52 39.98967 -81.95773 32649 ft 397 kts
2026-04-20 19:52 40.01727 -81.95119 31867 ft 394 kts
2026-04-20 19:52 40.04466 -81.94463 31073 ft 391 kts
2026-04-20 19:52 40.07199 -81.93806 30261 ft 388 kts
2026-04-20 19:53 40.09917 -81.93146 29435 ft 384 kts
2026-04-20 19:53 40.12530 -81.92497 28879 ft 376 kts
2026-04-20 19:53 40.15211 -81.91832 28281 ft 368 kts
2026-04-20 19:53 40.17854 -81.91189 27687 ft 371 kts
2026-04-20 19:54 40.20496 -81.90552 27081 ft 369 kts
2026-04-20 19:54 40.23135 -81.89905 26472 ft 362 kts
2026-04-20 19:54 40.25691 -81.89271 25882 ft 356 kts
2026-04-20 19:54 40.28238 -81.88658 25299 ft 361 kts
2026-04-20 19:55 40.30808 -81.88033 24690 ft 355 kts
2026-04-20 19:55 40.33342 -81.87406 24097 ft 348 kts
2026-04-20 19:55 40.35824 -81.86800 23519 ft 349 kts
2026-04-20 19:55 40.38324 -81.86218 22924 ft 348 kts
2026-04-20 19:56 40.39995 -81.85835 22525 ft 343 kts
2026-04-20 19:56 40.43227 -81.85081 21759 ft 339 kts
2026-04-20 19:56 40.45679 -81.84512 21172 ft 341 kts
2026-04-20 19:56 40.48116 -81.83945 20580 ft 334 kts
2026-04-20 19:57 40.50485 -81.83389 20045 ft 330 kts
2026-04-20 19:57 40.52823 -81.82838 19825 ft 315 kts
2026-04-20 19:57 40.55027 -81.82317 19544 ft 303 kts
2026-04-20 19:57 40.57208 -81.81817 19019 ft 306 kts
2026-04-20 19:58 40.59401 -81.81313 18521 ft 305 kts
2026-04-20 19:58 40.61601 -81.80793 17963 ft 302 kts
2026-04-20 19:58 40.63765 -81.80286 17284 ft 302 kts
2026-04-20 19:58 40.65940 -81.79785 16659 ft 300 kts
2026-04-20 19:59 40.68074 -81.79285 16152 ft 296 kts
2026-04-20 19:59 40.70183 -81.78785 15671 ft 297 kts
2026-04-20 19:59 40.72329 -81.78288 15177 ft 299 kts
2026-04-20 19:59 40.74462 -81.77788 14685 ft 294 kts
2026-04-20 20:00 40.76551 -81.77293 14208 ft 293 kts
2026-04-20 20:00 40.78654 -81.76804 13720 ft 298 kts
2026-04-20 20:00 40.80764 -81.76307 13217 ft 294 kts
2026-04-20 20:00 40.82813 -81.75816 12743 ft 290 kts
2026-04-20 20:01 40.84883 -81.75331 12278 ft 296 kts
2026-04-20 20:01 40.86961 -81.74847 11785 ft 292 kts
2026-04-20 20:01 40.89065 -81.74492 11297 ft 287 kts 358°
2026-04-20 20:01 40.91182 -81.74433 10817 ft 293 kts 357°
2026-04-20 20:02 40.93292 -81.74361 10477 ft 285 kts 358°
2026-04-20 20:02 40.95329 -81.74264 10311 ft 271 kts 358°
2026-04-20 20:02 40.97239 -81.74185 10203 ft 256 kts 358°
2026-04-20 20:02 40.99070 -81.74113 10014 ft 253 kts 358°
2026-04-20 20:03 41.00904 -81.74041 9697 ft 251 kts 358°
2026-04-20 20:03 41.02698 -81.73962 9371 ft 247 kts 358°
2026-04-20 20:03 41.04462 -81.74084 9047 ft 250 kts 342°
2026-04-20 20:03 41.05984 -81.75323 8681 ft 249 kts 308°
2026-04-20 20:04 41.06853 -81.77364 8357 ft 246 kts 298°
2026-04-20 20:04 41.07805 -81.79290 8025 ft 242 kts 308°
2026-04-20 20:04 41.08854 -81.81158 7645 ft 241 kts 306°
2026-04-20 20:04 41.09828 -81.83028 7310 ft 239 kts 305°
2026-04-20 20:05 41.10786 -81.84879 6997 ft 236 kts 305°
2026-04-20 20:05 41.11752 -81.86753 6688 ft 241 kts 305°
2026-04-20 20:05 41.12714 -81.88640 6370 ft 238 kts 305°
2026-04-20 20:05 41.13663 -81.90507 6060 ft 235 kts 304°
2026-04-20 20:06 41.14605 -81.92365 5970 ft 233 kts 304°
2026-04-20 20:06 41.15529 -81.94199 5963 ft 232 kts 304°
2026-04-20 20:06 41.16423 -81.95998 5965 ft 224 kts 304°
2026-04-20 20:06 41.17302 -81.97763 5971 ft 218 kts 305°
2026-04-20 20:07 41.18162 -81.99402 5976 ft 199 kts 313°
2026-04-20 20:07 41.19363 -82.00273 5968 ft 197 kts 352°
2026-04-20 20:07 41.20740 -82.00011 5764 ft 193 kts 14°
2026-04-20 20:07 41.22092 -81.99670 5492 ft 196 kts 352°
2026-04-20 20:08 41.23466 -82.00139 5146 ft 195 kts 341°
2026-04-20 20:08 41.24831 -82.00594 4771 ft 198 kts 345°
2026-04-20 20:08 41.26206 -82.01000 4387 ft 196 kts 345°
2026-04-20 20:08 41.27594 -82.01427 3987 ft 196 kts 346°
2026-04-20 20:09 41.29033 -82.01437 3570 ft 201 kts 16°
2026-04-20 20:09 41.30285 -82.00451 3201 ft 203 kts 31°
2026-04-20 20:09 41.31544 -81.99550 3014 ft 186 kts 21°
2026-04-20 20:09 41.32699 -81.98702 3015 ft 184 kts 39°
2026-04-20 20:10 41.33591 -81.97363 2819 ft 185 kts 45°
2026-04-20 20:10 41.34436 -81.96088 2509 ft 163 kts 46°
2026-04-20 20:10 41.35171 -81.94943 2293 ft 154 kts 46°
2026-04-20 20:10 41.35875 -81.93832 2083 ft 146 kts 48°
2026-04-20 20:11 41.36552 -81.92772 1863 ft 142 kts 48°
2026-04-20 20:11 41.37228 -81.91699 1691 ft 147 kts 48°
2026-04-20 20:11 41.37938 -81.90585 1463 ft 154 kts 49°
2026-04-20 20:11 41.38641 -81.89457 1317 ft 151 kts 48°
2026-04-20 20:12 41.39368 -81.88341 1067 ft 147 kts 48°
2026-04-20 20:12 41.40027 -81.87283 821 ft 136 kts 48°
2026-04-20 20:12 41.40574 -81.86424 800 ft 89 kts 49°
2026-04-20 20:13 41.41044 -81.85656 800 ft 27 kts 61°
2026-04-20 20:13 41.41094 -81.85429 800 ft 21 kts 76°
2026-04-20 20:13 41.41162 -81.85272 800 ft 17 kts 47°
2026-04-20 20:13 41.41241 -81.85148 800 ft 18 kts 50°
2026-04-20 20:14 41.41319 -81.85010 800 ft 15 kts 80°
2026-04-20 20:14 41.41266 -81.84898 800 ft 14 kts 138°
2026-04-20 20:14 41.41176 -81.84798 800 ft 15 kts 139°
2026-04-20 20:14 41.41103 -81.84704 800 ft 12 kts 113°
2026-04-20 20:15 41.41134 -81.84610 800 ft 13 kts 49°
2026-04-20 20:15 41.41200 -81.84506 800 ft 13 kts 51°
2026-04-20 20:15 41.41240 -81.84367 800 ft 18 kts 81°
2026-04-20 20:15 41.41288 -81.84229 800 ft 13 kts 88°
2026-04-20 20:16 41.41237 -81.84184 800 ft 8 kts 181°
2026-04-20 20:16 41.41206 -81.84187 800 ft 1 kts 185°
2026-04-20 20:16 41.41201 -81.84187 800 ft 1 kts 186°
2026-04-20 20:16 41.41197 -81.84188 800 ft 0 kts 186°